{"data":{"norad_id":54097,"epoch":"2026-09-20T22:49:13.782144Z","epoch_age_seconds":50189,"freshness":"FRESH","line1":"1 54097U 22136AY  26263.95085396  .00000268  00000+0  34960-4 0  9994","line2":"2 54097  53.1602 151.8268 0001751  92.7285 267.3907 15.08832357216816","mean_motion":15.08832357,"eccentricity":0.0001751,"inclination_deg":53.1602,"raan_deg":151.8268,"arg_perigee_deg":92.7285,"mean_anomaly_deg":267.3907,"bstar":3.496e-5,"rev_number":21681,"period_min":95.438038117312,"perigee_km":538.55542570935,"apogee_km":540.97807560283,"semimajor_km":6917.9037506561,"source":"CELESTRAK","updated_at":"2026-09-21T09:00:33.084848Z"}}